Simultaneous Nadir Overpasses (SNOs) Predictions

Prediction of SNOs between LANDSAT-8 and METOP-B Satellite Orbit:

Table of predicted SNOs for the next 14.0 days since TLE Epoch: 5/21/2021
Index Date (LANDSAT-8) Time (LANDSAT-8) Lat,Lon (LANDSAT-8) SZA (LANDSAT-8 ) Date (METOP-B) Time (METOP-B) Lat,Lon (METOP-B) SZA (METOP-B ) Distance(km) Time Diff (sec)
1 05/23/2021 08:45:15 -81.11, -91.51 117.31 05/23/2021 08:44:56 -81.12, -91.36 117.30 2.70 19
2 05/23/2021 09:34:40 81.14, 76.59 62.76 05/23/2021 09:35:35 81.14, 76.59 62.78 0.52 55
3 05/26/2021 04:19:32 -81.11, -25.12 117.83 05/26/2021 04:19:21 -81.10, -25.28 117.86 2.73 11
4 05/26/2021 05:08:57 81.14, 142.96 62.23 05/26/2021 05:09:59 81.14, 143.00 62.27 0.68 62
5 05/28/2021 23:53:48 -81.10, 41.24 118.31 05/28/2021 23:53:44 -81.11, 41.16 118.32 1.29 4
6 05/29/2021 00:43:13 81.13,-150.70 61.75 05/29/2021 00:44:22 81.14,-150.60 61.80 1.84 69
7 05/31/2021 18:38:38 81.10, -60.08 61.26 05/31/2021 18:37:28 81.09, -60.24 61.21 2.83 70
8 05/31/2021 19:28:04 -81.12, 107.93 118.69 05/31/2021 19:28:07 -81.12, 107.97 118.68 0.74 3
9 06/03/2021 14:12:55 81.08, 6.20 60.87 06/03/2021 14:11:52 81.09, 6.14 60.84 1.01 63



Historial Predications of SNOs between LANDSAT-8 and METOP-B
